This is the latest recevied weather packets stored in our database for station/object K5BOU. If no packets are shown the sender has not sent any weather packets the latest 10 day(s).
| Time | Temp. | Humidity | Pressure | Rain* | Wind** | Luminosity | Snow |
|---|---|---|---|---|---|---|---|
| 1788651216 | 31.11° C | 83% | 1009.9 hPa | 0 mm | - | 62 W/m² | - |
| 1788650915 | 31.11° C | 84% | 1010 hPa | 0 mm | - | 79 W/m² | - |
| 1788650611 | 30.56° C | 84% | 1009.9 hPa | 0 mm | - | 83 W/m² | - |
| 1788650307 | 30.56° C | 84% | 1009.9 hPa | 0 mm | - | 96 W/m² | - |
| 1788650002 | 30.56° C | 84% | 1010 hPa | 0 mm | - | 102 W/m² | - |
| 1788649698 | 30.56° C | 84% | 1009.6 hPa | 0 mm | - | 98 W/m² | - |
| 1788649396 | 30.56° C | 84% | 1009.8 hPa | 0 mm | - | 93 W/m² | - |
| 1788649095 | 30.56° C | 84% | 1009.6 hPa | 0 mm | - | 94 W/m² | - |
| 1788648791 | 30.56° C | 83% | 1009.4 hPa | 0 mm | - | 94 W/m² | - |
| 1788648490 | 30.56° C | 83% | 1009.6 hPa | 0 mm | - | 91 W/m² | - |
| 1788648186 | 30.56° C | 82% | 1009.7 hPa | 0 mm | - | 91 W/m² | - |
| 1788647881 | 30.56° C | 82% | 1009.4 hPa | 0 mm | - | 92 W/m² | - |
| 1788647578 | 30.56° C | 81% | 1009.7 hPa | 0 mm | - | 95 W/m² | - |
| 1788647273 | 30.56° C | 82% | 1009.4 hPa | 0 mm | - | 97 W/m² | - |
| 1788646972 | 30.56° C | 83% | 1009.5 hPa | 0 mm | - | 98 W/m² | - |
| 1788646668 | 30.56° C | 82% | 1009.7 hPa | 0 mm | - | 103 W/m² | - |
| 1788646365 | 30.56° C | 83% | 1009.6 hPa | 0 mm | - | 105 W/m² | - |
| 1788646061 | 30.56° C | 83% | 1009.8 hPa | 0 mm | - | 111 W/m² | - |
| 1788645757 | 30.56° C | 85% | 1009.7 hPa | 0 mm | - | 122 W/m² | - |
| 1788645456 | 30° C | 85% | 1009.5 hPa | 0 mm | - | 132 W/m² | - |
| 1788645152 | 30° C | 85% | 1009.6 hPa | 0 mm | - | 137 W/m² | - |
| 1788644847 | 30° C | 86% | 1009.6 hPa | 0 mm | - | 136 W/m² | - |
| 1788644543 | 29.44° C | 88% | 1009.8 hPa | 0 mm | - | 131 W/m² | - |
| 1788644238 | 29.44° C | 89% | 1009.8 hPa | 0 mm | - | 129 W/m² | - |
| 1788643934 | 29.44° C | 89% | 1010 hPa | 0 mm | - | 130 W/m² | - |
* Rain latest hour (hover to see other rain measurements)
** Current wind speed in m/s (hover to see current wind gust speed)